カタログに戻る

IONOSFERA-M 01

運用中科学SSO
NORAD 61735·PAYLOAD·🇷🇺 Russia

打ち上げ Nov 4, 2024 から Vostochny Cosmodrome

Loading…

次のパス (今後24時間)

TLE

最新Source: Space-Track

元期: Sep 14, 2026, 22:18 UTC

1 61735U 24199A   26257.92921783  .00000030  00000-0  33057-4 0  9995
2 61735  98.7017 130.0943 0000424 149.0853 211.0350 14.22768297140461

AllMySatでIONOSFERA-M 01をリアルタイム追跡

Download on the App Store